,,,PA_Meas_PMT16A,,PR_Meas_QMR101_102,,RH_Meas_QMH101,,SR_Meas_QMS101,,TA_Meas_QMH101,,GenWind,,GenWind,
date,time,status,PA,status,PR,status,RH,status,SR,status,TA,status,DirAvg,status,SpdAvg,
2010-04-15, 00:00:04,VALID,1000.97,VALID,0,VALID,88.29,VALID,0,VALID,25.4188,VALID,126,VALID,0,
2010-04-15, 00:01:04,VALID,1000.97,VALID,0,VALID,88.6943,VALID,0,VALID,25.3407,VALID,126,VALID,0,
2010-04-15, 00:02:04,VALID,1000.96,VALID,0,VALID,89.1674,VALID,0,VALID,25.2626,VALID,126,VALID,0,
2010-04-15, 00:03:04,VALID,1000.92,VALID,0,VALID,89.2666,VALID,0,VALID,25.204,VALID,68,VALID,0,
2010-04-15, 00:04:04,VALID,1000.92,VALID,0,VALID,89.442,VALID,0,VALID,25.1631,VALID,85,VALID,0,
2010-04-15, 00:05:04,VALID,1000.88,VALID,0,VALID,89.5031,VALID,0,VALID,25.1631,VALID,123,VALID,0.483984,
2010-04-15, 00:06:04,VALID,1000.85,VALID,0,VALID,89.3657,VALID,0,VALID,25.1436,VALID,123,VALID,0.376953,
2010-04-15, 00:07:04,VALID,1000.85,VALID,0,VALID,89.4344,VALID,0,VALID,25.1241,VALID,123,VALID,0,
2010-04-15, 00:08:04,VALID,1000.82,VALID,0,VALID,89.5717,VALID,0,VALID,25.1241,VALID,123,VALID,0,
2010-04-15, 00:09:04,VALID,1000.85,VALID,0,VALID,89.5946,VALID,0,VALID,25.1845,VALID,123,VALID,0,
2010-04-15, 00:10:04,VALID,1000.86,VALID,0,VALID,89.2513,VALID,0,VALID,25.1631,VALID,123,VALID,0,
2010-04-15, 00:11:04,VALID,1000.83,VALID,0,VALID,89.3963,VALID,0,VALID,25.165,VALID,123,VALID,0,
2010-04-15, 00:12:04,VALID,1000.84,VALID,0,VALID,89.4191,VALID,0,VALID,25.1455,VALID,123,VALID,0,
2010-04-15, 00:13:04,VALID,1000.81,VALID,0,VALID,89.7549,VALID,0,VALID,25.1455,VALID,130,VALID,0.139062,
2010-04-15, 00:14:04,VALID,1000.81,VALID,0,VALID,89.7091,VALID,0,VALID,25.165,VALID,139,VALID,0.858984,
2010-04-15, 00:15:04,VALID,1000.76,VALID,0,VALID,89.3581,VALID,0,VALID,25.1845,VALID,130,VALID,1.17383,
2010-04-15, 00:16:04,VALID,1000.76,VALID,0,VALID,89.2971,VALID,0,VALID,25.165,VALID,130,VALID,0.887109,
2010-04-15, 00:17:04,VALID,1000.75,VALID,0,VALID,89.4726,VALID,0.112286,VALID,25.1417,VALID,131,VALID,0.839063,
2010-04-15, 00:18:04,VALID,1000.72,VALID,0,VALID,89.587,VALID,0.112286,VALID,25.1221,VALID,131,VALID,0.692969,
2010-04-15, 00:19:04,VALID,1000.67,VALID,0,VALID,89.6938,VALID,0,VALID,25.1417,VALID,136,VALID,0.431641,
2010-04-15, 00:20:04,VALID,1000.67,VALID,0,VALID,89.5031,VALID,0.112286,VALID,25.1631,VALID,136,VALID,0,
2010-04-15, 00:21:04,VALID,1000.64,VALID,0,VALID,89.3581,VALID,0.112286,VALID,25.1221,VALID,136,VALID,0,
2010-04-15, 00:22:04,VALID,1000.59,VALID,0,VALID,89.4649,VALID,0,VALID,25.1026,VALID,136,VALID,0,
2010-04-15, 00:23:04,VALID,1000.59,VALID,0,VALID,89.5489,VALID,0.112286,VALID,25.085,VALID,136,VALID,0.034375,
2010-04-15, 00:24:04,VALID,1000.56,VALID,0,VALID,89.9532,VALID,0.112286,VALID,25.0831,VALID,146,VALID,0.548828,
2010-04-15, 00:25:04,VALID,1000.55,VALID,0,VALID,90.1134,VALID,0,VALID,25.1826,VALID,139,VALID,0,
2010-04-15, 00:26:04,VALID,1000.55,VALID,0,VALID,89.8159,VALID,0,VALID,25.2021,VALID,129,VALID,0.655469,
2010-04-15, 00:27:04,VALID,1000.53,VALID,0,VALID,89.4878,VALID,0.112286,VALID,25.2588,VALID,129,VALID,0.517578,
2010-04-15, 00:28:04,VALID,1000.57,VALID,0,VALID,89.0453,VALID,0,VALID,25.2978,VALID,129,VALID,0.678906,
2010-04-15, 00:29:04,VALID,1000.56,VALID,0,VALID,88.6028,VALID,0,VALID,25.3193,VALID,123,VALID,0.751953,
2010-04-15, 00:30:04,VALID,1000.54,VALID,0,VALID,88.8698,VALID,0,VALID,25.3173,VALID,145,VALID,1.12891,
2010-04-15, 00:31:04,VALID,1000.48,VALID,0,VALID,88.7554,VALID,0,VALID,25.3973,VALID,143,VALID,1.17578,
2010-04-15, 00:32:04,VALID,1000.49,VALID,0,VALID,88.3739,VALID,0,VALID,25.3973,VALID,166,VALID,1.86563,
2010-04-15, 00:33:04,VALID,1000.48,VALID,0,VALID,88.4273,VALID,0,VALID,25.3797,VALID,180,VALID,1.38984,
2010-04-15, 00:34:04,VALID,1000.46,VALID,0,VALID,88.5341,VALID,0,VALID,25.3797,VALID,180,VALID,0.979297,
2010-04-15, 00:35:04,VALID,1000.44,VALID,0,VALID,88.5189,VALID,0,VALID,25.3993,VALID,179,VALID,0.942578,
2010-04-15, 00:36:04,VALID,1000.41,VALID,0,VALID,88.4654,VALID,0,VALID,25.4188,VALID,188,VALID,1.14023,
2010-04-15, 00:37:04,VALID,1000.39,VALID,0,VALID,88.3586,VALID,0,VALID,25.4364,VALID,189,VALID,0.643359,
2010-04-15, 00:38:04,VALID,1000.38,VALID,0,VALID,88.1755,VALID,0,VALID,25.4559,VALID,189,VALID,0.00585938,
2010-04-15, 00:39:04,VALID,1000.35,VALID,0,VALID,88.2442,VALID,0,VALID,25.4969,VALID,189,VALID,0.458203,
2010-04-15, 00:40:04,VALID,1000.31,VALID,0,VALID,88.1908,VALID,0,VALID,25.5164,VALID,189,VALID,0.0121094,
2010-04-15, 00:41:04,VALID,1000.31,VALID,0,VALID,88.3281,VALID,0,VALID,25.5164,VALID,189,VALID,0,
2010-04-15, 00:42:04,VALID,1000.28,VALID,0,VALID,88.4426,VALID,0,VALID,25.4774,VALID,189,VALID,0,
2010-04-15, 00:43:04,VALID,1000.31,VALID,0,VALID,88.5875,VALID,0,VALID,25.4188,VALID,189,VALID,0,
2010-04-15, 00:44:04,VALID,1000.29,VALID,0,VALID,88.6943,VALID,0,VALID,25.3583,VALID,189,VALID,0,
2010-04-15, 00:45:04,VALID,1000.33,VALID,0,VALID,88.824,VALID,0,VALID,25.3212,VALID,189,VALID,0,
2010-04-15, 00:46:04,VALID,1000.37,VALID,0,VALID,89.0453,VALID,0,VALID,25.3017,VALID,161,VALID,0.0535156,
2010-04-15, 00:47:04,VALID,1000.41,VALID,0,VALID,88.7859,VALID,0,VALID,25.2997,VALID,160,VALID,0.977344,
2010-04-15, 00:48:04,VALID,1000.36,VALID,0,VALID,88.3434,VALID,0,VALID,25.2978,VALID,157,VALID,0.934766,
2010-04-15, 00:49:04,VALID,1000.37,VALID,0,VALID,88.206,VALID,0,VALID,25.2997,VALID,157,VALID,0.698438,
2010-04-15, 00:50:04,VALID,1000.34,VALID,0,VALID,88.2671,VALID,0,VALID,25.2802,VALID,157,VALID,0.583203,
2010-04-15, 00:51:04,VALID,1000.31,VALID,0,VALID,88.7554,VALID,0.112286,VALID,25.2997,VALID,157,VALID,0.480469,
2010-04-15, 00:52:04,VALID,1000.26,VALID,0,VALID,88.9385,VALID,0,VALID,25.2997,VALID,157,VALID,0.407031,
2010-04-15, 00:53:04,VALID,1000.24,VALID,0,VALID,88.9003,VALID,0.112286,VALID,25.3388,VALID,157,VALID,0.613281,
2010-04-15, 00:54:04,VALID,1000.25,VALID,0,VALID,88.6791,VALID,0.112286,VALID,25.3583,VALID,157,VALID,0.602344,
2010-04-15, 00:55:04,VALID,1000.26,VALID,0,VALID,88.5189,VALID,0.112286,VALID,25.3583,VALID,157,VALID,0.363672,
2010-04-15, 00:56:04,VALID,1000.24,VALID,0,VALID,88.4197,VALID,0.112286,VALID,25.3583,VALID,157,VALID,0.145313,
2010-04-15, 00:57:04,VALID,1000.23,VALID,0,VALID,88.2366,VALID,0.112286,VALID,25.3173,VALID,157,VALID,0.0351563,
2010-04-15, 00:58:04,VALID,1000.21,VALID,0,VALID,88.2747,VALID,0.112286,VALID,25.2783,VALID,157,VALID,0,
2010-04-15, 00:59:04,VALID,1000.23,VALID,0,VALID,88.3892,VALID,0.112286,VALID,25.2802,VALID,157,VALID,0,
2010-04-15, 01:00:04,VALID,1000.22,VALID,0,VALID,88.3815,VALID,0,VALID,25.2217,VALID,157,VALID,0,
2010-04-15, 01:01:04,VALID,1000.23,VALID,0,VALID,88.4426,VALID,0.112286,VALID,25.2021,VALID,157,VALID,0,
2010-04-15, 01:02:04,VALID,1000.2,VALID,0,VALID,88.6714,VALID,0,VALID,25.1845,VALID,157,VALID,0,
2010-04-15, 01:03:04,VALID,1000.18,VALID,0,VALID,88.9614,VALID,0,VALID,25.1455,VALID,157,VALID,0,
2010-04-15, 01:04:04,VALID,1000.15,VALID,0,VALID,89.3276,VALID,0,VALID,25.1455,VALID,157,VALID,0,
2010-04-15, 01:05:04,VALID,1000.13,VALID,0,VALID,89.1597,VALID,0,VALID,25.126,VALID,157,VALID,0,
2010-04-15, 01:06:04,VALID,1000.12,VALID,0,VALID,89.175,VALID,0,VALID,25.1064,VALID,157,VALID,0,
2010-04-15, 01:07:04,VALID,1000.08,VALID,0,VALID,89.0224,VALID,0,VALID,25.0674,VALID,157,VALID,0,
2010-04-15, 01:08:04,VALID,1000.05,VALID,0,VALID,88.8088,VALID,0,VALID,25.0284,VALID,157,VALID,0,
2010-04-15, 01:09:04,VALID,1000.03,VALID,0,VALID,89.1216,VALID,0,VALID,24.9679,VALID,157,VALID,0,
2010-04-15, 01:10:04,VALID,1000.03,VALID,0,VALID,89.6404,VALID,0,VALID,24.9289,VALID,157,VALID,0,
2010-04-15, 01:11:04,VALID,1000.02,VALID,0,VALID,89.8998,VALID,0,VALID,24.9308,VALID,157,VALID,0,
2010-04-15, 01:12:04,VALID,999.995,VALID,0,VALID,89.7014,VALID,0,VALID,24.9112,VALID,157,VALID,0,
2010-04-15, 01:13:04,VALID,999.979,VALID,0,VALID,89.8464,VALID,0,VALID,24.8917,VALID,157,VALID,0,
2010-04-15, 01:14:04,VALID,999.991,VALID,0,VALID,89.9685,VALID,0,VALID,24.8722,VALID,157,VALID,0,
2010-04-15, 01:15:04,VALID,999.997,VALID,0,VALID,89.8922,VALID,0,VALID,24.8527,VALID,157,VALID,0.202344,
2010-04-15, 01:16:04,VALID,999.984,VALID,0,VALID,89.8464,VALID,0,VALID,24.8136,VALID,157,VALID,0,
2010-04-15, 01:17:04,VALID,999.98,VALID,0,VALID,89.7243,VALID,0,VALID,24.7746,VALID,157,VALID,0,
2010-04-15, 01:18:04,VALID,999.974,VALID,0,VALID,90.1287,VALID,0.112286,VALID,24.7337,VALID,157,VALID,0,
2010-04-15, 01:19:04,VALID,999.956,VALID,0,VALID,90.5026,VALID,0,VALID,24.7142,VALID,157,VALID,0,
2010-04-15, 01:20:04,VALID,999.951,VALID,0,VALID,90.6399,VALID,0.112286,VALID,24.6928,VALID,157,VALID,0,
2010-04-15, 01:21:04,VALID,999.951,VALID,0,VALID,90.678,VALID,0,VALID,24.677,VALID,157,VALID,0,
2010-04-15, 01:22:04,VALID,999.943,VALID,0,VALID,90.9451,VALID,0,VALID,24.6361,VALID,157,VALID,0,
2010-04-15, 01:23:04,VALID,999.925,VALID,0,VALID,91.1358,VALID,0,VALID,24.677,VALID,157,VALID,0,
2010-04-15, 01:24:04,VALID,999.913,VALID,0,VALID,91.2426,VALID,0,VALID,24.677,VALID,157,VALID,0,
2010-04-15, 01:25:04,VALID,999.906,VALID,0,VALID,91.1511,VALID,0,VALID,24.6575,VALID,157,VALID,0,
2010-04-15, 01:26:04,VALID,999.895,VALID,0,VALID,91.1663,VALID,0,VALID,24.638,VALID,157,VALID,0,
2010-04-15, 01:27:04,VALID,999.892,VALID,0,VALID,91.2426,VALID,0,VALID,24.6184,VALID,157,VALID,0,
2010-04-15, 01:28:04,VALID,999.88,VALID,0,VALID,91.2655,VALID,0,VALID,24.5989,VALID,157,VALID,0,
2010-04-15, 01:29:04,VALID,999.883,VALID,0,VALID,91.3571,VALID,0,VALID,24.5989,VALID,157,VALID,0,
2010-04-15, 01:30:04,VALID,999.862,VALID,0,VALID,91.2808,VALID,0,VALID,24.5794,VALID,157,VALID,0,
2010-04-15, 01:31:04,VALID,999.822,VALID,0,VALID,91.4257,VALID,0,VALID,24.5599,VALID,157,VALID,0,
2010-04-15, 01:32:04,VALID,999.795,VALID,0,VALID,91.5402,VALID,0,VALID,24.558,VALID,157,VALID,0,
2010-04-15, 01:33:04,VALID,999.791,VALID,0,VALID,91.5402,VALID,0.112286,VALID,24.5404,VALID,157,VALID,0,
2010-04-15, 01:34:04,VALID,999.803,VALID,0,VALID,91.7385,VALID,0,VALID,24.519,VALID,157,VALID,0,
2010-04-15, 01:35:04,VALID,999.81,VALID,0,VALID,91.7004,VALID,0,VALID,24.48,VALID,156,VALID,0,
2010-04-15, 01:36:04,VALID,999.796,VALID,0,VALID,91.8148,VALID,0.112286,VALID,24.48,VALID,157,VALID,0,
2010-04-15, 01:37:04,VALID,999.812,VALID,0,VALID,91.7385,VALID,0,VALID,24.4214,VALID,69,VALID,0,
2010-04-15, 01:38:04,VALID,999.824,VALID,0,VALID,92.0437,VALID,0,VALID,24.4019,VALID,69,VALID,0,
2010-04-15, 01:39:04,VALID,999.818,VALID,0,VALID,92.2497,VALID,0,VALID,24.4409,VALID,69,VALID,0,
2010-04-15, 01:40:04,VALID,999.802,VALID,0,VALID,92.0056,VALID,0,VALID,24.3824,VALID,69,VALID,0,
2010-04-15, 01:41:04,VALID,999.802,VALID,0,VALID,91.9903,VALID,0,VALID,24.3238,VALID,69,VALID,0,
2010-04-15, 01:42:04,VALID,999.778,VALID,0,VALID,92.0285,VALID,0,VALID,24.3043,VALID,69,VALID,0,
2010-04-15, 01:43:04,VALID,999.823,VALID,0,VALID,92.3566,VALID,0,VALID,24.3043,VALID,69,VALID,0,
2010-04-15, 01:44:04,VALID,999.8,VALID,0,VALID,92.4252,VALID,0,VALID,24.3043,VALID,69,VALID,0,
2010-04-15, 01:45:04,VALID,999.788,VALID,0,VALID,92.4939,VALID,0,VALID,24.3238,VALID,69,VALID,0,
2010-04-15, 01:46:04,VALID,999.787,VALID,0,VALID,92.6007,VALID,0,VALID,24.3238,VALID,69,VALID,0,
2010-04-15, 01:47:04,VALID,999.775,VALID,0,VALID,92.616,VALID,0,VALID,24.3452,VALID,69,VALID,0,
2010-04-15, 01:48:04,VALID,999.793,VALID,0,VALID,92.6236,VALID,0,VALID,24.3452,VALID,69,VALID,0,
2010-04-15, 01:49:04,VALID,999.756,VALID,0,VALID,92.6465,VALID,0,VALID,24.3647,VALID,69,VALID,0,
2010-04-15, 01:50:04,VALID,999.752,VALID,0,VALID,92.6617,VALID,0,VALID,24.3647,VALID,69,VALID,0,
2010-04-15, 01:51:04,VALID,999.766,VALID,0,VALID,92.6083,VALID,0,VALID,24.3647,VALID,69,VALID,0,
2010-04-15, 01:52:04,VALID,999.732,VALID,0,VALID,92.6083,VALID,0,VALID,24.3647,VALID,69,VALID,0,
2010-04-15, 01:53:04,VALID,999.713,VALID,0,VALID,92.5778,VALID,0,VALID,24.3238,VALID,69,VALID,0,
2010-04-15, 01:54:04,VALID,999.71,VALID,0,VALID,92.5473,VALID,0,VALID,24.3452,VALID,69,VALID,0,
2010-04-15, 01:55:04,VALID,999.697,VALID,0,VALID,92.5549,VALID,0,VALID,24.3257,VALID,69,VALID,0,
2010-04-15, 01:56:04,VALID,999.694,VALID,0,VALID,92.616,VALID,0,VALID,24.3257,VALID,69,VALID,0,
2010-04-15, 01:57:04,VALID,999.697,VALID,0,VALID,92.6083,VALID,0,VALID,24.3452,VALID,69,VALID,0,
2010-04-15, 01:58:04,VALID,999.706,VALID,0,VALID,92.6923,VALID,0,VALID,24.3842,VALID,69,VALID,0,
2010-04-15, 01:59:04,VALID,999.69,VALID,0,VALID,92.6846,VALID,0,VALID,24.4233,VALID,69,VALID,0,
2010-04-15, 02:00:04,VALID,999.675,VALID,0,VALID,92.4405,VALID,0,VALID,24.4214,VALID,144,VALID,0.419141,
2010-04-15, 02:01:04,VALID,999.656,VALID,0,VALID,92.2803,VALID,0,VALID,24.4623,VALID,146,VALID,0.774219,
2010-04-15, 02:02:04,VALID,999.642,VALID,0,VALID,92.3566,VALID,0,VALID,24.5404,VALID,146,VALID,0.807031,
2010-04-15, 02:03:04,VALID,999.611,VALID,0,VALID,92.1734,VALID,0,VALID,24.5794,VALID,146,VALID,0.889453,
2010-04-15, 02:04:04,VALID,999.621,VALID,0,VALID,91.8988,VALID,0,VALID,24.5794,VALID,147,VALID,1.02969,
2010-04-15, 02:05:04,VALID,999.587,VALID,0,VALID,91.5783,VALID,0,VALID,24.5989,VALID,153,VALID,0.882422,
2010-04-15, 02:06:04,VALID,999.562,VALID,0,VALID,91.2655,VALID,0,VALID,24.5989,VALID,153,VALID,0.858203,
2010-04-15, 02:07:04,VALID,999.583,VALID,0,VALID,91.2426,VALID,0,VALID,24.5989,VALID,153,VALID,0.902734,
2010-04-15, 02:08:04,VALID,999.57,VALID,0,VALID,91.09,VALID,0,VALID,24.5989,VALID,150,VALID,0.872656,
2010-04-15, 02:09:04,VALID,999.581,VALID,0,VALID,91.0214,VALID,0,VALID,24.5794,VALID,149,VALID,0.750781,
2010-04-15, 02:10:04,VALID,999.577,VALID,0,VALID,91.0137,VALID,0,VALID,24.5599,VALID,157,VALID,0.455469,
2010-04-15, 02:11:04,VALID,999.577,VALID,0,VALID,90.9832,VALID,0,VALID,24.5404,VALID,157,VALID,0.707031,
2010-04-15, 02:12:04,VALID,999.577,VALID,0,VALID,91.0977,VALID,0,VALID,24.4995,VALID,162,VALID,0.4875,
2010-04-15, 02:13:04,VALID,999.579,VALID,0,VALID,91.2731,VALID,0,VALID,24.5209,VALID,162,VALID,0.768359,
2010-04-15, 02:14:04,VALID,999.588,VALID,0,VALID,91.3266,VALID,0,VALID,24.5209,VALID,160,VALID,0.800781,
2010-04-15, 02:15:04,VALID,999.584,VALID,0,VALID,91.3952,VALID,0,VALID,24.5385,VALID,175,VALID,0.605078,
2010-04-15, 02:16:04,VALID,999.563,VALID,0,VALID,91.3113,VALID,0,VALID,24.5794,VALID,175,VALID,0.521094,
2010-04-15, 02:17:04,VALID,999.598,VALID,0,VALID,91.2121,VALID,0,VALID,24.5385,VALID,175,VALID,0.456641,
2010-04-15, 02:18:04,VALID,999.585,VALID,0,VALID,91.1587,VALID,0,VALID,24.5599,VALID,175,VALID,0.504687,
2010-04-15, 02:19:04,VALID,999.591,VALID,0,VALID,91.174,VALID,0,VALID,24.5404,VALID,175,VALID,0.349609,
2010-04-15, 02:20:04,VALID,999.601,VALID,0,VALID,91.09,VALID,0,VALID,24.5404,VALID,159,VALID,0,
2010-04-15, 02:21:04,VALID,999.616,VALID,0,VALID,91.1282,VALID,0,VALID,24.5404,VALID,158,VALID,0,
2010-04-15, 02:22:04,VALID,999.644,VALID,0,VALID,91.0366,VALID,0,VALID,24.5404,VALID,158,VALID,0,
2010-04-15, 02:23:04,VALID,999.626,VALID,0,VALID,90.9527,VALID,0,VALID,24.5209,VALID,158,VALID,0,
2010-04-15, 02:24:04,VALID,999.595,VALID,0,VALID,90.9985,VALID,0,VALID,24.5013,VALID,158,VALID,0,
2010-04-15, 02:25:04,VALID,999.593,VALID,0,VALID,91.2274,VALID,0,VALID,24.5209,VALID,158,VALID,0,
2010-04-15, 02:26:04,VALID,999.575,VALID,0,VALID,91.3266,VALID,0,VALID,24.5404,VALID,158,VALID,0,
2010-04-15, 02:27:04,VALID,999.579,VALID,0,VALID,91.296,VALID,0,VALID,24.5794,VALID,158,VALID,0,
2010-04-15, 02:28:04,VALID,999.542,VALID,0,VALID,91.0977,VALID,0,VALID,24.638,VALID,158,VALID,0,
2010-04-15, 02:29:04,VALID,999.56,VALID,0,VALID,90.7849,VALID,0,VALID,24.6166,VALID,152,VALID,0.185156,
2010-04-15, 02:30:04,VALID,999.541,VALID,0,VALID,90.5712,VALID,0,VALID,24.6166,VALID,148,VALID,0.588281,
2010-04-15, 02:31:04,VALID,999.51,VALID,0,VALID,90.4568,VALID,0,VALID,24.6184,VALID,147,VALID,0.578125,
2010-04-15, 02:32:04,VALID,999.494,VALID,0,VALID,90.5026,VALID,0,VALID,24.5989,VALID,148,VALID,0.137109,
2010-04-15, 02:33:04,VALID,999.455,VALID,0,VALID,90.5254,VALID,0,VALID,24.5599,VALID,148,VALID,0,
2010-04-15, 02:34:04,VALID,999.431,VALID,0,VALID,90.6017,VALID,0,VALID,24.5209,VALID,147,VALID,0,
2010-04-15, 02:35:04,VALID,999.402,VALID,0,VALID,90.617,VALID,0,VALID,24.5013,VALID,148,VALID,0,
2010-04-15, 02:36:04,VALID,999.349,VALID,0,VALID,90.6246,VALID,0,VALID,24.4623,VALID,148,VALID,0,
2010-04-15, 02:37:04,VALID,999.328,VALID,0,VALID,90.6323,VALID,0,VALID,24.4428,VALID,148,VALID,0,
2010-04-15, 02:38:04,VALID,999.331,VALID,0,VALID,90.7085,VALID,0,VALID,24.3842,VALID,148,VALID,0,
2010-04-15, 02:39:04,VALID,999.3,VALID,0,VALID,90.762,VALID,0,VALID,24.3647,VALID,148,VALID,0,
2010-04-15, 02:40:04,VALID,999.321,VALID,0,VALID,90.8459,VALID,0,VALID,24.3257,VALID,148,VALID,0,
2010-04-15, 02:41:04,VALID,999.295,VALID,0,VALID,91.1053,VALID,0,VALID,24.3062,VALID,148,VALID,0,
2010-04-15, 02:42:04,VALID,999.312,VALID,0,VALID,91.3189,VALID,0,VALID,24.3062,VALID,148,VALID,0,
2010-04-15, 02:43:04,VALID,999.305,VALID,0,VALID,91.4028,VALID,0,VALID,24.3062,VALID,148,VALID,0,
2010-04-15, 02:44:04,VALID,999.282,VALID,0,VALID,91.2426,VALID,0,VALID,24.2476,VALID,321,VALID,0.341797,
2010-04-15, 02:45:04,VALID,999.277,VALID,0,VALID,91.502,VALID,0,VALID,24.2476,VALID,321,VALID,0,
2010-04-15, 02:46:04,VALID,999.309,VALID,0,VALID,91.3113,VALID,0,VALID,24.2086,VALID,321,VALID,0,
2010-04-15, 02:47:04,VALID,999.307,VALID,0,VALID,91.4639,VALID,0,VALID,24.1677,VALID,321,VALID,0,
2010-04-15, 02:48:04,VALID,999.324,VALID,0,VALID,91.5783,VALID,0,VALID,24.1482,VALID,321,VALID,0,
2010-04-15, 02:49:04,VALID,999.316,VALID,0,VALID,91.6241,VALID,0.112286,VALID,24.1287,VALID,321,VALID,0,
2010-04-15, 02:50:04,VALID,999.305,VALID,0,VALID,91.7538,VALID,0.112286,VALID,24.1092,VALID,321,VALID,0,
2010-04-15, 02:51:04,VALID,999.277,VALID,0,VALID,91.7233,VALID,0,VALID,24.0701,VALID,321,VALID,0,
2010-04-15, 02:52:04,VALID,999.358,VALID,0,VALID,91.6775,VALID,0.112286,VALID,24.0506,VALID,322,VALID,0,
2010-04-15, 02:53:04,VALID,999.341,VALID,0,VALID,92.0209,VALID,0.112286,VALID,24.0506,VALID,41,VALID,0,
2010-04-15, 02:54:04,VALID,999.365,VALID,0,VALID,92.0895,VALID,0.112286,VALID,24.0701,VALID,41,VALID,0,
2010-04-15, 02:55:04,VALID,999.375,VALID,0,VALID,92.1277,VALID,0.112286,VALID,24.0506,VALID,41,VALID,0,
2010-04-15, 02:56:04,VALID,999.396,VALID,0,VALID,92.1582,VALID,0,VALID,24.0506,VALID,41,VALID,0,
2010-04-15, 02:57:04,VALID,999.424,VALID,0,VALID,92.2803,VALID,0,VALID,24.0506,VALID,41,VALID,0,
2010-04-15, 02:58:04,VALID,999.422,VALID,0,VALID,92.2726,VALID,0.112286,VALID,24.0506,VALID,41,VALID,0,
2010-04-15, 02:59:04,VALID,999.408,VALID,0,VALID,92.616,VALID,0,VALID,24.0878,VALID,41,VALID,0,
2010-04-15, 03:00:04,VALID,999.4,VALID,0,VALID,92.6694,VALID,0.112286,VALID,24.1464,VALID,41,VALID,0,
2010-04-15, 03:01:04,VALID,999.408,VALID,0,VALID,92.6007,VALID,0.112286,VALID,24.1677,VALID,41,VALID,0,
2010-04-15, 03:02:04,VALID,999.407,VALID,0,VALID,92.5015,VALID,0,VALID,24.1092,VALID,41,VALID,0,
2010-04-15, 03:03:04,VALID,999.425,VALID,0,VALID,92.4786,VALID,0,VALID,24.111,VALID,93,VALID,0,
2010-04-15, 03:04:04,VALID,999.411,VALID,0,VALID,92.5549,VALID,0,VALID,24.1092,VALID,101,VALID,0,
2010-04-15, 03:05:04,VALID,999.441,VALID,0,VALID,92.6694,VALID,0,VALID,24.1696,VALID,120,VALID,0.655859,
2010-04-15, 03:06:04,VALID,999.41,VALID,0,VALID,92.4939,VALID,0,VALID,24.15,VALID,113,VALID,0.651953,
2010-04-15, 03:07:04,VALID,999.423,VALID,0,VALID,92.5778,VALID,0,VALID,24.1891,VALID,126,VALID,0.814453,
2010-04-15, 03:08:04,VALID,999.414,VALID,0,VALID,92.4557,VALID,0,VALID,24.2086,VALID,127,VALID,0.680859,
2010-04-15, 03:09:04,VALID,999.41,VALID,0,VALID,92.2116,VALID,0,VALID,24.2086,VALID,130,VALID,0.625,
2010-04-15, 03:10:04,VALID,999.4,VALID,0,VALID,92.2268,VALID,0,VALID,24.2281,VALID,130,VALID,0.862891,
2010-04-15, 03:11:04,VALID,999.37,VALID,0,VALID,92.0437,VALID,0,VALID,24.2263,VALID,130,VALID,0.517578,
2010-04-15, 03:12:04,VALID,999.353,VALID,0,VALID,91.9751,VALID,0,VALID,24.2476,VALID,130,VALID,0.461328,
2010-04-15, 03:13:04,VALID,999.344,VALID,0,VALID,91.9293,VALID,0,VALID,24.2671,VALID,129,VALID,0.532812,
2010-04-15, 03:14:04,VALID,999.323,VALID,0,VALID,92.1429,VALID,0,VALID,24.3257,VALID,125,VALID,0.649219,
2010-04-15, 03:15:04,VALID,999.325,VALID,0,VALID,92.1429,VALID,0,VALID,24.3647,VALID,125,VALID,0.603906,
2010-04-15, 03:16:04,VALID,999.296,VALID,0,VALID,91.8683,VALID,0,VALID,24.4037,VALID,126,VALID,0.546094,
2010-04-15, 03:17:04,VALID,999.292,VALID,0,VALID,91.792,VALID,0,VALID,24.4428,VALID,126,VALID,0.577734,
2010-04-15, 03:18:04,VALID,999.3,VALID,0,VALID,91.7385,VALID,0,VALID,24.4837,VALID,126,VALID,0.499219,
2010-04-15, 03:19:04,VALID,999.302,VALID,0,VALID,91.5707,VALID,0,VALID,24.4837,VALID,104,VALID,0.507422,
2010-04-15, 03:20:04,VALID,999.297,VALID,0,VALID,91.4181,VALID,0,VALID,24.5013,VALID,103,VALID,0.2875,
2010-04-15, 03:21:04,VALID,999.336,VALID,0,VALID,91.3418,VALID,0,VALID,24.5032,VALID,103,VALID,0.278516,
2010-04-15, 03:22:04,VALID,999.347,VALID,0,VALID,91.38,VALID,0,VALID,24.5209,VALID,103,VALID,0,
2010-04-15, 03:23:04,VALID,999.319,VALID,0,VALID,91.4563,VALID,0,VALID,24.5599,VALID,105,VALID,0.591797,
2010-04-15, 03:24:04,VALID,999.343,VALID,0,VALID,91.3037,VALID,0,VALID,24.5794,VALID,106,VALID,0.469531,
2010-04-15, 03:25:04,VALID,999.375,VALID,0,VALID,91.1053,VALID,0,VALID,24.6184,VALID,106,VALID,0.140625,
2010-04-15, 03:26:04,VALID,999.366,VALID,0,VALID,90.8993,VALID,0,VALID,24.6575,VALID,106,VALID,0,
2010-04-15, 03:27:04,VALID,999.386,VALID,0,VALID,90.8535,VALID,0,VALID,24.6556,VALID,106,VALID,0,
2010-04-15, 03:28:04,VALID,999.381,VALID,0,VALID,90.8459,VALID,0,VALID,24.6965,VALID,104,VALID,0,
2010-04-15, 03:29:04,VALID,999.388,VALID,0,VALID,90.678,VALID,0,VALID,24.716,VALID,104,VALID,0,
2010-04-15, 03:30:04,VALID,999.415,VALID,0,VALID,90.678,VALID,0,VALID,24.7551,VALID,103,VALID,0,
2010-04-15, 03:31:04,VALID,999.357,VALID,0,VALID,90.266,VALID,0,VALID,24.7142,VALID,103,VALID,0,
2010-04-15, 03:32:04,VALID,999.384,VALID,0,VALID,89.8769,VALID,0,VALID,24.716,VALID,76,VALID,0,
2010-04-15, 03:33:04,VALID,999.369,VALID,0,VALID,89.7396,VALID,0,VALID,24.6575,VALID,18,VALID,0,
2010-04-15, 03:34:04,VALID,999.361,VALID,0,VALID,90.0066,VALID,0,VALID,24.638,VALID,18,VALID,0,
2010-04-15, 03:35:04,VALID,999.33,VALID,0,VALID,90.0753,VALID,0,VALID,24.5989,VALID,17,VALID,0,
2010-04-15, 03:36:04,VALID,999.327,VALID,0,VALID,90.1592,VALID,0,VALID,24.5599,VALID,12,VALID,0,
2010-04-15, 03:37:04,VALID,999.334,VALID,0,VALID,89.8464,VALID,0,VALID,24.5013,VALID,12,VALID,0,
2010-04-15, 03:38:04,VALID,999.341,VALID,0,VALID,89.999,VALID,0,VALID,24.4037,VALID,5,VALID,0,
2010-04-15, 03:39:04,VALID,999.354,VALID,0,VALID,90.8154,VALID,0,VALID,24.3842,VALID,5,VALID,0,
2010-04-15, 03:40:04,VALID,999.356,VALID,0,VALID,91.235,VALID,0,VALID,24.4428,VALID,26,VALID,0.730078,
2010-04-15, 03:41:04,VALID,999.354,VALID,0,VALID,90.9756,VALID,0,VALID,24.4428,VALID,25,VALID,0.710547,
2010-04-15, 03:42:04,VALID,999.354,VALID,0,VALID,90.9527,VALID,0,VALID,24.4623,VALID,23,VALID,0.785156,
2010-04-15, 03:43:04,VALID,999.352,VALID,0,VALID,91.1206,VALID,0,VALID,24.4818,VALID,22,VALID,0.727344,
2010-04-15, 03:44:04,VALID,999.364,VALID,0,VALID,90.7772,VALID,0,VALID,24.5422,VALID,25,VALID,0,
2010-04-15, 03:45:04,VALID,999.351,VALID,0,VALID,91.0366,VALID,0,VALID,24.5989,VALID,31,VALID,0,
2010-04-15, 03:46:04,VALID,999.331,VALID,0,VALID,90.6628,VALID,0,VALID,24.638,VALID,31,VALID,0,
2010-04-15, 03:47:04,VALID,999.321,VALID,0,VALID,90.6094,VALID,0,VALID,24.677,VALID,31,VALID,0,
2010-04-15, 03:48:04,VALID,999.314,VALID,0,VALID,90.8001,VALID,0,VALID,24.7356,VALID,31,VALID,0,
2010-04-15, 03:49:04,VALID,999.283,VALID,0,VALID,90.617,VALID,0,VALID,24.7746,VALID,31,VALID,0,
2010-04-15, 03:50:04,VALID,999.315,VALID,0,VALID,90.4873,VALID,0,VALID,24.8332,VALID,31,VALID,0,
2010-04-15, 03:51:04,VALID,999.317,VALID,0,VALID,90.3728,VALID,0,VALID,24.8917,VALID,31,VALID,0,
2010-04-15, 03:52:04,VALID,999.319,VALID,0,VALID,90.4491,VALID,0,VALID,24.9308,VALID,31,VALID,0,